Time,TemperatureF,DewpointF,PressureIn,WindDirection,WindDirectionDegrees,WindSpeedMPH,WindSpeedGustMPH,Humidity,HourlyPrecipIn,Conditions,Clouds,dailyrainin,SolarRadiationWatts/m^2,SoftwareType,DateUTC
2013-01-07 00:02:00,35.0,32.0,-100.00,ENE,57,3.0,15.0,90,0.00,,,0.00,0.000000,,2013-01-07 08:02:00,
2013-01-07 00:12:00,35.0,32.0,-100.00,ENE,57,3.0,15.0,90,0.00,,,0.00,0.000000,,2013-01-07 08:12:00,
2013-01-07 00:43:00,33.0,33.0,-100.00,NNE,31,2.0,14.0,100,0.00,,,0.00,0.000000,,2013-01-07 08:43:00,
2013-01-07 00:53:00,33.0,33.0,-100.00,NNE,31,2.0,14.0,100,0.00,,,0.00,0.000000,,2013-01-07 08:53:00,
2013-01-07 01:02:00,33.0,33.0,-100.00,NNE,31,2.0,14.0,100,0.00,,,0.00,0.000000,,2013-01-07 09:02:00,
2013-01-07 01:12:00,33.0,33.0,-100.00,NNE,31,2.0,14.0,100,0.00,,,0.00,0.000000,,2013-01-07 09:12:00,
2013-01-07 01:32:00,34.0,34.0,-100.00,North,11,1.0,11.0,100,0.00,,,0.00,0.000000,,2013-01-07 09:32:00,
2013-01-07 01:42:00,34.0,34.0,-100.00,North,11,1.0,11.0,100,0.00,,,0.00,0.000000,,2013-01-07 09:42:00,
2013-01-07 01:52:00,34.0,34.0,-100.00,North,11,1.0,11.0,100,0.00,,,0.00,0.000000,,2013-01-07 09:52:00,
2013-01-07 02:02:00,34.0,34.0,-100.00,North,11,1.0,11.0,100,0.00,,,0.00,0.000000,,2013-01-07 10:02:00,
2013-01-07 02:12:00,34.0,34.0,-100.00,North,11,1.0,11.0,100,0.00,,,0.00,0.000000,,2013-01-07 10:12:00,
2013-01-07 02:33:00,34.0,34.0,-100.00,SW,233,1.0,10.0,100,0.00,,,0.00,0.000000,,2013-01-07 10:33:00,
2013-01-07 02:42:00,34.0,34.0,-100.00,SW,233,1.0,10.0,100,0.00,,,0.00,0.000000,,2013-01-07 10:42:00,
2013-01-07 02:52:00,34.0,34.0,-100.00,SW,233,1.0,10.0,100,0.00,,,0.00,0.000000,,2013-01-07 10:52:00,
2013-01-07 03:02:00,34.0,34.0,-100.00,SW,233,1.0,10.0,100,0.00,,,0.00,0.000000,,2013-01-07 11:02:00,
2013-01-07 03:12:00,34.0,34.0,-100.00,SW,233,1.0,10.0,100,0.00,,,0.00,0.000000,,2013-01-07 11:12:00,
2013-01-07 03:43:00,33.0,33.0,-100.00,NW,325,2.0,12.0,100,0.00,,,0.00,0.000000,,2013-01-07 11:43:00,
2013-01-07 03:53:00,33.0,33.0,-100.00,NW,325,2.0,12.0,100,0.00,,,0.00,0.000000,,2013-01-07 11:53:00,
2013-01-07 04:02:00,33.0,33.0,-100.00,NW,325,2.0,12.0,100,0.00,,,0.00,0.000000,,2013-01-07 12:02:00,
2013-01-07 04:12:00,33.0,33.0,-100.00,NW,325,2.0,12.0,100,0.00,,,0.00,0.000000,,2013-01-07 12:12:00,
2013-01-07 04:43:00,36.0,36.0,-100.00,ENE,75,7.0,10.0,100,0.00,,,-99.99,0.000000,,2013-01-07 12:43:00,
2013-01-07 04:53:00,36.0,36.0,-100.00,ENE,75,7.0,10.0,100,0.00,,,-99.99,0.000000,,2013-01-07 12:53:00,
2013-01-07 05:02:00,36.0,36.0,-100.00,ENE,75,7.0,10.0,100,0.00,,,-99.99,0.000000,,2013-01-07 13:02:00,
2013-01-07 05:12:00,36.0,36.0,-100.00,ENE,75,7.0,10.0,100,0.00,,,-99.99,0.000000,,2013-01-07 13:12:00,
2013-01-07 05:43:00,36.0,36.0,-100.00,West,272,2.0,20.0,100,0.00,,,0.00,0.000000,,2013-01-07 13:43:00,
2013-01-07 05:53:00,36.0,36.0,-100.00,West,272,2.0,20.0,100,0.00,,,0.00,0.000000,,2013-01-07 13:53:00,
2013-01-07 06:03:00,36.0,36.0,-100.00,West,272,2.0,20.0,100,0.00,,,0.00,0.000000,,2013-01-07 14:03:00,
2013-01-07 06:12:00,36.0,36.0,-100.00,West,272,2.0,20.0,100,0.00,,,0.00,0.000000,,2013-01-07 14:12:00,
2013-01-07 06:33:00,38.0,38.0,-100.00,NE,53,3.0,19.0,100,0.00,,,0.00,0.000000,,2013-01-07 14:33:00,
2013-01-07 06:43:00,38.0,38.0,-100.00,NE,53,3.0,19.0,100,0.00,,,0.00,0.000000,,2013-01-07 14:43:00,
2013-01-07 06:53:00,38.0,38.0,-100.00,NE,53,3.0,19.0,100,0.00,,,0.00,0.000000,,2013-01-07 14:53:00,
2013-01-07 07:03:00,38.0,38.0,-100.00,NE,53,3.0,19.0,100,0.00,,,0.00,0.000000,,2013-01-07 15:03:00,
2013-01-07 07:12:00,38.0,38.0,-100.00,NE,53,3.0,19.0,100,0.00,,,0.00,0.000000,,2013-01-07 15:12:00,
2013-01-07 07:33:00,37.0,37.0,-100.00,ENE,63,7.0,15.0,100,0.00,,,0.00,0.000000,,2013-01-07 15:33:00,
2013-01-07 07:43:00,37.0,37.0,-100.00,ENE,63,7.0,15.0,100,0.00,,,0.00,0.000000,,2013-01-07 15:43:00,
2013-01-07 07:53:00,37.0,37.0,-100.00,ENE,63,7.0,15.0,100,0.00,,,0.00,0.000000,,2013-01-07 15:53:00,
2013-01-07 08:02:00,37.0,37.0,-100.00,ENE,63,7.0,15.0,100,0.00,,,0.00,0.000000,,2013-01-07 16:02:00,
2013-01-07 08:12:00,37.0,37.0,-100.00,ENE,63,7.0,15.0,100,0.00,,,0.00,0.000000,,2013-01-07 16:12:00,
2013-01-07 08:43:00,38.0,38.0,-100.00,ENE,73,9.0,20.0,100,0.00,,,0.00,19.000000,,2013-01-07 16:43:00,
2013-01-07 08:53:00,38.0,38.0,-100.00,ENE,73,9.0,20.0,100,0.00,,,0.00,19.000000,,2013-01-07 16:53:00,
2013-01-07 09:02:00,38.0,38.0,-100.00,ENE,73,9.0,20.0,100,0.00,,,0.00,19.000000,,2013-01-07 17:02:00,
2013-01-07 09:12:00,38.0,38.0,-100.00,ENE,73,9.0,20.0,100,0.00,,,0.00,19.000000,,2013-01-07 17:12:00,
2013-01-07 09:42:00,39.0,39.0,-100.00,NW,326,8.0,28.0,100,0.00,,,-99.99,94.000000,,2013-01-07 17:42:00,
2013-01-07 09:53:00,39.0,39.0,-100.00,NW,326,8.0,28.0,100,0.00,,,-99.99,94.000000,,2013-01-07 17:53:00,
2013-01-07 10:02:00,39.0,39.0,-100.00,NW,326,8.0,28.0,100,0.00,,,-99.99,94.000000,,2013-01-07 18:02:00,
2013-01-07 10:12:00,39.0,39.0,-100.00,NW,326,8.0,28.0,100,0.00,,,-99.99,94.000000,,2013-01-07 18:12:00,
2013-01-07 10:43:00,42.0,42.0,-100.00,ESE,104,10.0,24.0,99,0.00,,,0.00,201.000000,,2013-01-07 18:43:00,
2013-01-07 10:53:00,42.0,42.0,-100.00,ESE,104,10.0,24.0,99,0.00,,,0.00,201.000000,,2013-01-07 18:53:00,
2013-01-07 11:03:00,42.0,42.0,-100.00,ESE,104,10.0,24.0,99,0.00,,,0.00,201.000000,,2013-01-07 19:03:00,
2013-01-07 11:12:00,42.0,42.0,-100.00,ESE,104,10.0,24.0,99,0.00,,,0.00,201.000000,,2013-01-07 19:12:00,
2013-01-07 11:43:00,42.0,37.0,-100.00,ENE,78,15.0,27.0,83,0.00,,,-99.99,236.000000,,2013-01-07 19:43:00,
2013-01-07 11:53:00,42.0,37.0,-100.00,ENE,78,15.0,27.0,83,0.00,,,-99.99,236.000000,,2013-01-07 19:53:00,
2013-01-07 12:02:00,42.0,37.0,-100.00,ENE,78,15.0,27.0,83,0.00,,,-99.99,236.000000,,2013-01-07 20:02:00,
2013-01-07 12:12:00,42.0,37.0,-100.00,ENE,78,15.0,27.0,83,0.00,,,-99.99,236.000000,,2013-01-07 20:12:00,
2013-01-07 12:43:00,46.0,36.0,-100.00,East,80,13.0,42.0,68,0.00,,,0.00,498.000000,,2013-01-07 20:43:00,
2013-01-07 12:53:00,46.0,36.0,-100.00,East,80,13.0,42.0,68,0.00,,,0.00,498.000000,,2013-01-07 20:53:00,
2013-01-07 13:02:00,46.0,36.0,-100.00,East,80,13.0,42.0,68,0.00,,,0.00,498.000000,,2013-01-07 21:02:00,
2013-01-07 13:12:00,46.0,36.0,-100.00,East,80,13.0,42.0,68,0.00,,,0.00,498.000000,,2013-01-07 21:12:00,
2013-01-07 13:33:00,45.0,35.0,-100.00,ENE,74,13.0,31.0,68,0.00,,,0.00,436.000000,,2013-01-07 21:33:00,
2013-01-07 13:43:00,45.0,35.0,-100.00,ENE,74,13.0,31.0,68,0.00,,,0.00,436.000000,,2013-01-07 21:43:00,
2013-01-07 13:53:00,45.0,35.0,-100.00,ENE,74,13.0,31.0,68,0.00,,,0.00,436.000000,,2013-01-07 21:53:00,
2013-01-07 14:02:00,45.0,35.0,-100.00,ENE,74,13.0,31.0,68,0.00,,,0.00,436.000000,,2013-01-07 22:02:00,
2013-01-07 14:12:00,45.0,35.0,-100.00,ENE,74,13.0,31.0,68,0.00,,,0.00,436.000000,,2013-01-07 22:12:00,
2013-01-07 14:43:00,45.0,34.0,-100.00,East,80,11.0,33.0,64,0.01,,,0.01,378.000000,,2013-01-07 22:43:00,
2013-01-07 14:53:00,45.0,34.0,-100.00,East,80,11.0,33.0,64,0.01,,,0.01,378.000000,,2013-01-07 22:53:00,
2013-01-07 15:02:00,45.0,34.0,-100.00,East,80,11.0,33.0,64,0.01,,,0.01,378.000000,,2013-01-07 23:02:00,
2013-01-07 15:12:00,45.0,34.0,-100.00,East,80,11.0,33.0,64,0.01,,,0.01,378.000000,,2013-01-07 23:12:00,
2013-01-07 15:33:00,43.0,31.0,-100.00,East,87,11.0,33.0,63,0.00,,,0.01,51.000000,,2013-01-07 23:33:00,
2013-01-07 15:43:00,43.0,31.0,-100.00,East,87,11.0,33.0,63,0.00,,,0.01,51.000000,,2013-01-07 23:43:00,
2013-01-07 15:53:00,43.0,31.0,-100.00,East,87,11.0,33.0,63,0.00,,,0.01,51.000000,,2013-01-07 23:53:00,
2013-01-07 16:02:00,43.0,31.0,-100.00,East,87,11.0,33.0,63,0.00,,,0.01,51.000000,,2013-01-08 00:02:00,
2013-01-07 16:12:00,43.0,31.0,-100.00,East,87,11.0,33.0,63,0.00,,,0.01,51.000000,,2013-01-08 00:12:00,
2013-01-07 16:43:00,42.0,28.0,-100.00,SW,229,9.0,29.0,58,0.00,,,0.01,15.000000,,2013-01-08 00:43:00,
2013-01-07 16:52:00,42.0,28.0,-100.00,SW,229,9.0,29.0,58,0.00,,,0.01,15.000000,,2013-01-08 00:52:00,
2013-01-07 17:02:00,42.0,28.0,-100.00,SW,229,9.0,29.0,58,0.00,,,0.01,15.000000,,2013-01-08 01:02:00,
2013-01-07 17:12:00,42.0,28.0,-100.00,SW,229,9.0,29.0,58,0.00,,,0.01,15.000000,,2013-01-08 01:12:00,
2013-01-07 17:42:00,41.0,31.0,-100.00,East,83,10.0,28.0,67,0.00,,,0.01,0.000000,,2013-01-08 01:42:00,
2013-01-07 17:52:00,41.0,31.0,-100.00,East,83,10.0,28.0,67,0.00,,,0.01,0.000000,,2013-01-08 01:52:00,
2013-01-07 18:02:00,41.0,31.0,-100.00,East,83,10.0,28.0,67,0.00,,,0.01,0.000000,,2013-01-08 02:02:00,
2013-01-07 18:12:00,41.0,31.0,-100.00,East,83,10.0,28.0,67,0.00,,,0.01,0.000000,,2013-01-08 02:12:00,
2013-01-07 18:43:00,41.0,31.0,-100.00,ENE,73,11.0,28.0,67,0.01,,,0.02,0.000000,,2013-01-08 02:43:00,
2013-01-07 18:53:00,41.0,31.0,-100.00,ENE,73,11.0,28.0,67,0.01,,,0.02,0.000000,,2013-01-08 02:53:00,
2013-01-07 19:03:00,41.0,31.0,-100.00,ENE,73,11.0,28.0,67,0.01,,,0.02,0.000000,,2013-01-08 03:03:00,
2013-01-07 19:12:00,41.0,31.0,-100.00,ENE,73,11.0,28.0,67,0.01,,,0.02,0.000000,,2013-01-08 03:12:00,
2013-01-07 19:33:00,39.0,31.0,-100.00,SSE,166,8.0,30.0,72,0.03,,,0.05,0.000000,,2013-01-08 03:33:00,
2013-01-07 19:43:00,39.0,31.0,-100.00,SSE,166,8.0,30.0,72,0.03,,,0.05,0.000000,,2013-01-08 03:43:00,
2013-01-07 19:53:00,39.0,31.0,-100.00,SSE,166,8.0,30.0,72,0.03,,,0.05,0.000000,,2013-01-08 03:53:00,
2013-01-07 20:02:00,39.0,31.0,-100.00,SSE,166,8.0,30.0,72,0.03,,,0.05,0.000000,,2013-01-08 04:02:00,
2013-01-07 20:12:00,39.0,31.0,-100.00,SSE,166,8.0,30.0,72,0.03,,,0.05,0.000000,,2013-01-08 04:12:00,
2013-01-07 20:32:00,39.0,31.0,-100.00,ENE,74,10.0,29.0,72,0.04,,,0.09,0.000000,,2013-01-08 04:32:00,
2013-01-07 20:43:00,39.0,31.0,-100.00,ENE,74,10.0,29.0,72,0.04,,,0.09,0.000000,,2013-01-08 04:43:00,
2013-01-07 20:52:00,39.0,31.0,-100.00,ENE,74,10.0,29.0,72,0.04,,,0.09,0.000000,,2013-01-08 04:52:00,
2013-01-07 21:03:00,39.0,31.0,-100.00,ENE,74,10.0,29.0,72,0.04,,,0.09,0.000000,,2013-01-08 05:03:00,
2013-01-07 21:12:00,39.0,31.0,-100.00,ENE,74,10.0,29.0,72,0.04,,,0.09,0.000000,,2013-01-08 05:12:00,
2013-01-07 21:33:00,39.0,28.0,-100.00,ENE,70,7.0,29.0,65,0.03,,,0.12,0.000000,,2013-01-08 05:33:00,
2013-01-07 21:43:00,39.0,28.0,-100.00,ENE,70,7.0,29.0,65,0.03,,,0.12,0.000000,,2013-01-08 05:43:00,
2013-01-07 21:53:00,39.0,28.0,-100.00,ENE,70,7.0,29.0,65,0.03,,,0.12,0.000000,,2013-01-08 05:53:00,
2013-01-07 22:02:00,39.0,28.0,-100.00,ENE,70,7.0,29.0,65,0.03,,,0.12,0.000000,,2013-01-08 06:02:00,
2013-01-07 22:12:00,39.0,28.0,-100.00,ENE,70,7.0,29.0,65,0.03,,,0.12,0.000000,,2013-01-08 06:12:00,
2013-01-07 22:33:00,38.0,26.0,-100.00,ENE,78,7.0,30.0,61,0.01,,,0.13,0.000000,,2013-01-08 06:33:00,
2013-01-07 23:02:00,38.0,26.0,-100.00,ENE,78,7.0,30.0,61,0.01,,,0.13,0.000000,,2013-01-08 07:02:00,
2013-01-07 23:11:00,38.0,26.0,-100.00,ENE,78,7.0,30.0,61,0.01,,,0.13,0.000000,,2013-01-08 07:11:00,
2013-01-07 23:42:00,36.0,25.0,-100.00,WNW,302,6.0,21.0,65,0.00,,,0.13,0.000000,,2013-01-08 07:42:00,
2013-01-07 23:52:00,36.0,25.0,-100.00,WNW,302,6.0,21.0,65,0.00,,,0.13,0.000000,,2013-01-08 07:52:00,